| time (UTC) | temp F | wind direction | speed knots | gust knots | rain 1hr in | rain 24hr in | rain mn in | humidity % | barometer mb |
| 20260509171533 | 58 | 339 | 12.2 | 19.1 | 0.00 | 0.00 | 0.00 | 44 | 1008.1 |
| 20260509170032 | 58 | 338 | 9.6 | 18.2 | 0.00 | 0.00 | 0.00 | 48 | 1008.2 |
| 20260509164530 | 58 | 333 | 13.9 | 19.1 | 0.00 | 0.00 | 0.00 | 47 | 1008.1 |
| 20260509163036 | 57 | 339 | 9.6 | 17.4 | 0.00 | 0.00 | 0.00 | 54 | 1007.8 |
| 20260509161526 | 57 | 358 | 9.6 | 17.4 | 0.00 | 0.00 | 0.00 | 56 | 1007.7 |
| 20260509160026 | 56 | 343 | 15.6 | 19.1 | 0.00 | 0.00 | 0.00 | 56 | 1007.5 |
| 20260509154523 | 56 | 340 | 13.9 | 17.4 | 0.00 | 0.00 | 0.00 | 60 | 1007.4 |
| 20260509153023 | 56 | 346 | 13.0 | 20.0 | 0.00 | 0.00 | 0.00 | 62 | 1007.2 |
| 20260509151520 | 56 | 340 | 10.4 | 17.4 | 0.00 | 0.00 | 0.00 | 64 | 1007.2 |
| 20260509150024 | 55 | 336 | 10.4 | 16.5 | 0.00 | 0.00 | 0.00 | 65 | 1007.0 |
| 20260509144519 | 55 | 339 | 13.0 | 16.5 | 0.00 | 0.00 | 0.00 | 68 | 1006.8 |
| 20260509143015 | 55 | 338 | 11.3 | 16.5 | 0.00 | 0.00 | 0.00 | 69 | 1006.5 |
| 20260509141528 | 55 | 321 | 8.7 | 12.2 | 0.00 | 0.00 | 0.00 | 69 | 1006.4 |
| 20260509140011 | 55 | 331 | 10.4 | 15.6 | 0.00 | 0.00 | 0.00 | 70 | 1006.3 |
| 20260509134512 | 54 | 316 | 8.7 | 13.0 | 0.00 | 0.00 | 0.00 | 69 | 1006.2 |
| 20260509133006 | 54 | 331 | 8.7 | 17.4 | 0.00 | 0.00 | 0.00 | 67 | 1005.7 |
| 20260509131508 | 54 | 330 | 7.8 | 11.3 | 0.00 | 0.00 | 0.00 | 64 | 1005.7 |
| 20260509130003 | 52 | 316 | 3.5 | 4.3 | 0.00 | 0.00 | 0.00 | 62 | 1005.6 |
| 20260509124500 | 51 | 283 | 2.6 | 3.5 | 0.00 | 0.00 | 0.00 | 60 | 1005.8 |
| 20260509123101 | 51 | 285 | 0.9 | 2.6 | 0.00 | 0.00 | 0.00 | 60 | 1005.1 |
| 20260509121558 | 50 | 297 | 1.7 | 3.5 | 0.00 | 0.00 | 0.00 | 60 | 1005.4 |
| 20260509120057 | 50 | 328 | 2.6 | 4.3 | 0.00 | 0.00 | 0.00 | 59 | 1005.4 |
| 20260509114556 | 50 | 329 | 3.5 | 6.1 | 0.00 | 0.00 | 0.00 | 57 | 1005.1 |
| 20260509113118 | 51 | 323 | 6.1 | 7.8 | 0.00 | 0.00 | 0.00 | 56 | 1004.8 |
| 20260509111600 | 51 | 333 | 7.0 | 9.6 | 0.00 | 0.00 | 0.00 | 55 | 1004.5 |
| 20260509110049 | 50 | 311 | 3.5 | 4.3 | 0.00 | 0.00 | 0.00 | 57 | 1004.1 |
| 20260509104557 | 51 | 293 | 3.5 | 5.2 | 0.00 | 0.00 | 0.00 | 54 | 1003.6 |
| 20260509103056 | 51 | 320 | 6.1 | 13.9 | 0.00 | 0.00 | 0.00 | 54 | 1003.9 |
| 20260509101547 | 47 | 219 | 4.3 | 7.0 | 0.00 | 0.00 | 0.00 | 57 | 1002.6 |
| 20260509100105 | 47 | 231 | 4.3 | 6.1 | 0.00 | 0.00 | 0.00 | 57 | 1002.6 |
| 20260509094551 | 47 | 224 | 4.3 | 6.1 | 0.00 | 0.00 | 0.00 | 57 | 1002.7 |
| 20260509093045 | 46 | 224 | 4.3 | 6.1 | 0.00 | 0.00 | 0.00 | 58 | 1002.8 |
| 20260509091551 | 46 | 231 | 5.2 | 6.1 | 0.00 | 0.00 | 0.00 | 59 | 1002.9 |
| 20260509090042 | 46 | 226 | 5.2 | 7.0 | 0.00 | 0.00 | 0.00 | 58 | 1003.0 |
| 20260509084540 | 46 | 226 | 5.2 | 6.1 | 0.00 | 0.00 | 0.00 | 57 | 1003.0 |
| 20260509083043 | 47 | 230 | 4.3 | 6.1 | 0.00 | 0.00 | 0.00 | 56 | 1003.0 |
| 20260509081535 | 48 | 211 | 6.1 | 7.8 | 0.00 | 0.00 | 0.00 | 54 | 1002.9 |
| 20260509080044 | 48 | 237 | 4.3 | 6.1 | 0.00 | 0.00 | 0.00 | 55 | 1002.7 |
| 20260509074530 | 49 | 233 | 5.2 | 7.8 | 0.00 | 0.00 | 0.00 | 52 | 1003.1 |
| 20260509073026 | 49 | 233 | 5.2 | 7.0 | 0.00 | 0.00 | 0.00 | 52 | 1003.3 |
| 20260509071523 | 50 | 233 | 3.5 | 4.3 | 0.00 | 0.00 | 0.00 | 51 | 1003.4 |
| 20260509070023 | 50 | 231 | 3.5 | 5.2 | 0.00 | 0.00 | 0.00 | 51 | 1003.6 |
| 20260509064528 | 50 | 233 | 3.5 | 5.2 | 0.00 | 0.00 | 0.00 | 50 | 1003.5 |
| 20260509063017 | 51 | 237 | 2.6 | 5.2 | 0.00 | 0.00 | 0.00 | 47 | 1003.8 |
| 20260509061532 | 54 | 322 | 1.7 | 2.6 | 0.00 | 0.00 | 0.00 | 45 | 1004.0 |
| 20260509060012 | 54 | 322 | 1.7 | 2.6 | 0.00 | 0.00 | 0.00 | 44 | 1004.2 |
| 20260509054511 | 54 | 322 | 1.7 | 2.6 | 0.00 | 0.00 | 0.00 | 43 | 1004.1 |
| 20260509053021 | 55 | 323 | 1.7 | 3.5 | 0.00 | 0.00 | 0.00 | 44 | 1004.1 |
| 20260509051505 | 56 | 325 | 1.7 | 2.6 | 0.00 | 0.00 | 0.00 | 43 | 1004.2 |
| 20260509050002 | 57 | 326 | 2.6 | 4.3 | 0.00 | 0.00 | 0.00 | 40 | 1004.2 |
| 20260509044501 | 58 | 331 | 3.5 | 4.3 | 0.00 | 0.00 | 0.00 | 40 | 1004.3 |
| 20260509043104 | 59 | 331 | 2.6 | 6.1 | 0.00 | 0.00 | 0.00 | 39 | 1004.2 |
| 20260509041559 | 59 | 333 | 4.3 | 6.1 | 0.00 | 0.00 | 0.00 | 38 | 1004.2 |
| 20260509040100 | 60 | 336 | 5.2 | 7.0 | 0.00 | 0.00 | 0.00 | 37 | 1004.4 |
| 20260509034604 | 60 | 331 | 3.5 | 5.2 | 0.00 | 0.00 | 0.00 | 37 | 1004.3 |
| 20260509033058 | 61 | 330 | 4.3 | 7.8 | 0.00 | 0.00 | 0.00 | 35 | 1004.2 |
| 20260509031557 | 61 | 330 | 4.3 | 7.0 | 0.00 | 0.00 | 0.00 | 35 | 1004.1 |
| 20260509030056 | 62 | 330 | 3.5 | 6.1 | 0.00 | 0.00 | 0.00 | 35 | 1003.9 |
| 20260509024556 | 62 | 338 | 5.2 | 7.8 | 0.00 | 0.00 | 0.00 | 35 | 1003.8 |
| 20260509023055 | 63 | 335 | 4.3 | 7.0 | 0.00 | 0.00 | 0.00 | 35 | 1003.5 |
| 20260509021554 | 64 | 326 | 4.3 | 7.0 | 0.00 | 0.00 | 0.00 | 35 | 1003.3 |
| 20260509020054 | 65 | 340 | 5.2 | 8.7 | 0.00 | 0.00 | 0.00 | 35 | 1003.0 |
| 20260509014554 | 65 | 330 | 4.3 | 7.0 | 0.00 | 0.00 | 0.00 | 35 | 1002.9 |
| 20260509013053 | 67 | 335 | 5.2 | 8.7 | 0.00 | 0.00 | 0.00 | 34 | 1002.7 |
| 20260509011552 | 68 | 328 | 7.8 | 10.4 | 0.00 | 0.00 | 0.00 | 32 | 1002.5 |
| 20260509010051 | 69 | 336 | 7.0 | 11.3 | 0.00 | 0.00 | 0.00 | 32 | 1002.5 |
| 20260509004551 | 70 | 337 | 8.7 | 14.8 | 0.00 | 0.00 | 0.00 | 31 | 1002.4 |
| 20260509003050 | 71 | 326 | 8.7 | 13.9 | 0.00 | 0.00 | 0.00 | 31 | 1002.3 |
| 20260509001549 | 71 | 328 | 10.4 | 13.9 | 0.00 | 0.00 | 0.00 | 30 | 1002.3 |
| 20260509000049 | 71 | 337 | 7.8 | 13.9 | 0.00 | 0.00 | 0.00 | 30 | 1002.2 |
| 20260508234553 | 72 | 290 | 6.1 | 14.8 | 0.00 | 0.00 | 0.00 | 28 | 1002.1 |
| 20260508233049 | 72 | 300 | 7.0 | 9.6 | 0.00 | 0.00 | 0.00 | 27 | 1002.1 |
| 20260508231613 | 72 | 308 | 5.2 | 8.7 | 0.00 | 0.00 | 0.00 | 26 | 1002.2 |
| 20260508230056 | 72 | 283 | 7.0 | 9.6 | 0.00 | 0.00 | 0.00 | 26 | 1002.4 |
| 20260508224542 | 72 | 291 | 7.0 | 12.2 | 0.00 | 0.00 | 0.00 | 26 | 1002.4 |
| 20260508223045 | 72 | 316 | 6.1 | 13.0 | 0.00 | 0.00 | 0.00 | 26 | 1002.6 |
| 20260508221541 | 73 | 316 | 3.5 | 6.1 | 0.00 | 0.00 | 0.00 | 26 | 1002.6 |
| 20260508220043 | 71 | 309 | 2.6 | 8.7 | 0.00 | 0.00 | 0.00 | 26 | 1002.8 |
| 20260508214550 | 72 | 278 | 5.2 | 8.7 | 0.00 | 0.00 | 0.00 | 26 | 1003.0 |
| 20260508213046 | 73 | 312 | 7.0 | 10.4 | 0.00 | 0.00 | 0.00 | 26 | 1003.3 |
| 20260508211540 | 71 | 320 | 7.0 | 12.2 | 0.00 | 0.00 | 0.00 | 26 | 1003.5 |
| 20260508210033 | 71 | 294 | 7.0 | 11.3 | 0.00 | 0.00 | 0.00 | 25 | 1003.6 |
| 20260508204533 | 71 | 319 | 7.0 | 9.6 | 0.00 | 0.00 | 0.00 | 25 | 1003.7 |
| 20260508203029 | 71 | 330 | 7.0 | 16.5 | 0.00 | 0.00 | 0.00 | 25 | 1004.0 |
| 20260508201527 | 71 | 329 | 5.2 | 10.4 | 0.00 | 0.00 | 0.00 | 24 | 1004.2 |
| 20260508200030 | 72 | 287 | 9.6 | 13.9 | 0.00 | 0.00 | 0.00 | 23 | 1004.5 |
| 20260508194525 | 72 | 281 | 3.5 | 10.4 | 0.00 | 0.00 | 0.00 | 23 | 1004.7 |
| 20260508193028 | 72 | 280 | 7.8 | 11.3 | 0.00 | 0.00 | 0.00 | 23 | 1005.0 |
| 20260508191534 | 70 | 290 | 6.1 | 10.4 | 0.00 | 0.00 | 0.00 | 23 | 1005.2 |
| 20260508190027 | 71 | 274 | 5.2 | 8.7 | 0.00 | 0.00 | 0.00 | 24 | 1005.5 |
| 20260508184522 | 71 | 285 | 5.2 | 8.7 | 0.00 | 0.00 | 0.00 | 24 | 1005.6 |
| 20260508183014 | 70 | 307 | 5.2 | 7.8 | 0.00 | 0.00 | 0.00 | 24 | 1005.8 |
| 20260508181511 | 69 | 285 | 7.8 | 12.2 | 0.00 | 0.00 | 0.00 | 25 | 1006.0 |
| 20260508180009 | 70 | 285 | 5.2 | 11.3 | 0.00 | 0.00 | 0.00 | 24 | 1006.2 |
| 20260508174506 | 68 | 328 | 6.1 | 10.4 | 0.00 | 0.00 | 0.00 | 25 | 1006.3 |
| 20260508173004 | 68 | 297 | 7.8 | 11.3 | 0.00 | 0.00 | 0.00 | 26 | 1006.8 |